Regional Weather Roundup
Issued by NWS

Home | Current Version | Previous Version | Graphics & Text | Print | Product List | Glossary On
Versions: 1 2 3 4 5 6 7 8 9 10 11 12 13 14 15 16 17 18 19 20 21 22 23 24 25 26 27 28 29 30 31 32 33 34 35 36 37 38 39 40 41 42 43 44 45 46 47 48 49 50
000
ASUS43 KFSD 271705
RWRSD

SOUTH DAKOTA HOURLY REGIONAL WEATHER ROUNDUP
NATIONAL WEATHER SERVICE ABERDEEN SD
1200 PM CDT WED AUG 27 2014

...SATELLITE DATA IS USED TO AUGMENT CLOUD COVER ABOVE 12000 FEET...

NOTE: "FAIR" INDICATES FEW OR NO CLOUDS BELOW 12,000 FEET WITH NO
SIGNIFICANT WEATHER AND/OR OBSTRUCTION TO VISIBILITY.

SDZ001>005-009-010-012>017-271800-
...NORTHWEST AND NORTH CENTRAL SOUTH DAKOTA...

CITY           SKY/WX    TMP DP  RH WIND       PRES   REMARKS
BUFFALO          N/A     73  58  59 SE10      30.07F
FAITH            N/A     62  61  96 NE6       30.14S
MOBRIDGE       SUNNY     71  61  70 SE5       30.12F
$$

SDZ012>016-024>037-041>051-057-063-271800-
...SOUTHWEST AND SOUTH CENTRAL SOUTH DAKOTA...

CITY           SKY/WX    TMP DP  RH WIND       PRES   REMARKS
RAPID CITY     SUNNY     70  60  70 NE12      30.14S
ELLSWORTH AFB  MOSUNNY   68  59  74 E10       30.14S
CUSTER         SUNNY     70  55  59 E6G16     30.22S
PHILIP         CLOUDY    63  60  90 NE12      30.11F
PINE RIDGE     PTSUNNY   75  63  66 MISG      30.11F
PIERRE         CLOUDY    66  63  90 E14       30.11S
WINNER         NOT AVBL
$$

SDZ004>011-016>023-039-040-271800-
...NORTHEAST SOUTH DAKOTA...

CITY           SKY/WX    TMP DP  RH WIND       PRES   REMARKS
ABERDEEN       MOSUNNY   70  60  70 S14       30.17F
WATERTOWN      CLOUDY    66  56  70 SE10      30.20S
BROOKINGS      NOT AVBL
SISSETON         N/A     69  60  73 S14       30.19R
$$

SDZ017-020-022-023-036>040-048>070-271800-
...SOUTHEAST SOUTH DAKOTA...

CITY           SKY/WX    TMP DP  RH WIND       PRES   REMARKS
SIOUX FALLS    CLOUDY    67  59  75 E10       30.18F
YANKTON        CLOUDY    64  61  88 E12       30.14F
MITCHELL       CLOUDY    71  62  73 E10       30.15F
HURON          CLOUDY    69  60  73 SE7       30.16F
CHAMBERLAIN    PTSUNNY   70  64  80 SE15      30.12F
$$



USA.gov is the U.S. government's official web portal to all federal, state and local government web resources and services.